#timestamp,LO_Frequency,Hit,StdDev 
1634882415.2,286046997.7,Y
1634882435.9,286046998.7,P
1634882455.7,286046998.3,P
1634882475.6,286046998.4,P
1634882495.4,286046999.1,N
1634882515.2,286046999.2,N
1634882535.1,286046996.7,Y
1634882536.0,286046996.7,P
1634882555.8,286046999.1,N
1634882575.6,286046996.9,N
1634882595.5,286046999.2,N
1634882615.3,286046996.6,Y
1634882635.1,286047001.2,P
1634882655.9,286047002.7,N
1634882675.7,286047000.5,N
1634882695.5,286047001.1,N
1634882715.4,286047000.9,N
1634882735.2,286047000.7,N
1634882755.0,286046998.2,N
1634882755.9,286046998.2,N
1634882775.8,286046996.9,N
1634882795.6,286046996.6,N
1634882815.4,286046999.4,N
1634882835.3,286046999.2,N
1634882855.1,286046998.5,N
1634882856.0,286046998.5,N
1634882875.8,286046996.9,N
1634882895.7,286046998.7,N
1634882915.5,286047000.7,N
1634882935.3,286046999.5,N
1634882955.2,286046996.6,N
1634882975.9,286046997.0,N
1634882995.7,286046999.4,N
1634883015.6,286046998.9,N
1634883035.4,286046996.5,N
1634883055.2,286046997.1,N
1634883075.1,286046997.2,N
1634883076.0,286046997.2,N
1634883095.8,286046998.1,N
1634883115.6,286046998.4,N
1634883135.5,286046998.5,N
1634883155.3,286046998.3,N
1634883175.1,286046998.1,N
1634883195.9,286046998.9,N
1634883215.7,286046999.2,N
1634883235.5,286046996.6,N
1634883255.3,286046999.5,N
1634883275.2,286046999.6,N
1634883295.0,286046997.3,N
1634883295.9,286046997.3,N
1634883315.7,286046997.2,N
1634883335.6,286046997.0,N
1634883355.4,286046997.9,N
1634883375.2,286046994.9,Y
1634883395.1,286046999.0,P
1634883396.0,286046999.0,N
1634883415.8,286046998.7,P
1634883435.6,286046999.4,N
1634883455.5,286046999.4,N
1634883475.3,286046999.0,N
1634883495.1,286046998.9,N
1634883515.9,286046999.2,N
1634883535.7,286046997.8,Y
1634883555.5,286046998.3,P
1634883575.4,286046999.3,N
1634883595.2,286046999.4,N
1634883615.0,286046999.5,N
1634883615.9,286046999.5,N
1634883635.8,286046996.5,Y
1634883655.6,286046999.5,P
1634883675.4,286046998.8,P
1634883695.3,286046999.2,N
1634883715.1,286046999.1,Y
1634883735.8,286046998.9,P
1634883755.7,286046999.1,P
1634883775.5,286046999.0,P
1634883795.3,286046999.2,Y
1634883815.2,286047001.0,P
1634883835.0,286047000.8,N
1634883835.9,286047000.8,N
1634883855.7,286046998.7,N
1634883875.6,286047000.2,N
1634883895.4,286047000.8,N
1634883915.2,286046998.6,N
1634883935.1,286046999.2,N
1634883936.0,286046999.2,N
1634883955.8,286046998.1,N
1634883975.6,286046998.3,N
1634883995.5,286046999.4,N
1634884015.3,286046998.9,N
1634884035.1,286047000.8,N
1634884055.9,286046999.9,N
1634884075.7,286046998.2,N
1634884095.5,286046999.9,N
1634884115.4,286047000.8,N
1634884135.2,286047001.0,N
1634884155.0,286047000.4,N
1634884155.9,286047000.4,N
1634884175.8,286047000.0,N
1634884195.6,286047002.7,N
1634884215.4,286047002.2,N
1634884235.3,286047000.1,N
1634884255.1,286047001.3,N
1634884275.8,286047002.5,N
1634884295.7,286047001.4,N
1634884315.5,286047004.3,Y
1634884335.3,286047004.2,P
1634884355.2,286047003.8,N
1634884375.9,286047003.1,N
1634884395.7,286047003.8,N
1634884415.6,286047003.4,N
1634884435.4,286047005.9,Y
1634884455.2,286047002.7,P
1634884475.1,286047002.1,P
1634884476.0,286047002.1,P
1634884495.8,286047001.5,Y
1634884515.6,286046998.4,P
1634884535.5,286046999.3,N
1634884555.3,286046996.7,N
1634884575.1,286046997.1,N
1634884595.9,286046997.8,N
1634884615.7,286046997.9,N
1634884635.5,286046997.6,N
1634884655.4,286046997.8,N
1634884675.2,286046997.9,N
1634884695.0,286046995.2,Y
1634884695.9,286046995.2,P
1634884715.8,286046998.6,N
1634884735.6,286047001.1,N
1634884755.4,286047000.7,N
1634884775.3,286047000.4,N
1634884795.1,286046999.8,N
1634884796.0,286046999.8,N
1634884815.8,286047002.8,N
1634884835.7,286046998.1,N
1634884855.5,286047000.7,N
1634884875.3,286047000.8,N
1634884895.2,286046999.9,N
1634884915.9,286047000.0,N
1634884935.7,286047002.5,N
1634884955.6,286047003.3,N
1634884975.4,286047004.2,N
1634884995.2,286047003.8,N
1634885015.1,286047001.4,N
1634885016.0,286047001.4,N
1634885035.8,286047004.2,N
1634885055.6,286047003.6,N
1634885075.5,286047004.2,N
1634885095.3,286047001.6,N
1634885115.1,286047003.9,N
1634885135.8,286047005.2,N
1634885155.7,286047005.1,N
1634885175.5,286047007.5,Y
1634885195.3,286047005.6,P
1634885215.2,286047006.0,N
1634885235.0,286047003.0,N
1634885235.9,286047003.0,N
1634885255.7,286047003.3,N
1634885275.6,286047005.6,Y
1634885295.4,286047002.7,P
1634885315.3,286047002.2,P
1634885335.1,286047002.0,P
1634885336.0,286047002.0,N
1634885355.8,286047000.1,N
1634885375.6,286047002.7,N
1634885395.5,286046999.8,N
1634885415.3,286047002.7,N
1634885435.1,286047001.6,N
1634885455.9,286047001.9,N
1634885475.7,286047001.8,N
1634885495.5,286047001.9,N
1634885515.4,286047002.7,N
1634885535.2,286047004.0,Y
1634885555.0,286047001.9,P
1634885555.9,286047001.9,P
1634885575.8,286047001.6,P
1634885595.6,286047001.6,Y
1634885615.4,286046998.6,P
1634885635.3,286047000.5,N
1634885655.1,286047000.1,N
1634885675.8,286047002.1,N
1634885695.7,286047001.6,N
1634885715.5,286047001.9,N
1634885735.3,286047002.0,N
1634885755.2,286047002.5,N
1634885775.0,286047002.4,N
1634885775.9,286047002.4,N
1634885795.7,286047001.4,N
1634885815.6,286047003.9,Y
1634885835.4,286046999.9,P
1634885855.2,286046999.9,N
1634885875.1,286047001.5,N
1634885876.0,286047001.5,N
1634885895.8,286047004.4,Y
1634885915.6,286047002.0,P
1634885935.5,286047001.3,N
1634885955.3,286047003.8,P
1634885975.1,286047004.4,Y
1634885995.9,286046999.7,P
